Orbital Elements at Epoch 2459200.5 (2020-Dec-17.0) TDB
Reference: JPL 23 (heliocentric ecliptic J2000)
Element | Value | Uncertainty (1-sigma) | Units |
e | .1088989226956622 | 3.7342e-08 | |
a | 2.365206429793894 | 9.4239e-09 | au |
q | 2.107637997636485 | 8.8497e-08 | au |
i | 6.187873876732566 | 3.9422e-06 | deg |
node | 231.2378960526748 | 3.8892e-05 | deg |
peri | 162.6337860396592 | 4.3854e-05 | deg |
M | 109.5660580028975 | 1.9542e-05 | deg |
tp | 2458796.133155223096 (2019-Nov-08.63315522) | 7.1737e-05 | TDB |
period | 1328.623725021082 3.64 | 7.9406e-06 2.174e-08 | d yr |
n | .2709570762740126 | 1.6194e-09 | deg/d |
Q | 2.622774861951302 | 1.045e-08 | au |
|
| | Orbit Determination Parameters
Additional Information
|